<?xml version="1.0"?>
<gpx xmlns="http://www.topografix.com/GPX/1/1" xmlns:xsi="http://www.w3.org/2001/XMLSchema-instance" version="1.1" creator="GPX RubyGem 1.0.0 -- http://dougfales.github.io/gpx/" xsi:schemaLocation="http://www.topografix.com/GPX/1/1 http://www.topografix.com/GPX/1/1/gpx.xsd">
  <metadata>
    <name/>
    <time>2026-05-10T22:56:58+00:00</time>
    <bound minlat="90.0" minlon="180.0" maxlat="-90.0" maxlon="-180.0"/>
  </metadata>
  <trk>
    <name/>
    <trkseg>
      <trkpt lat="50.601801" lon="4.12856">
        <time>1970-01-01T00:00:00+00:00</time>
        <ele>91.0</ele>
      </trkpt>
      <trkpt lat="50.601935" lon="4.128419">
        <time>1970-01-01T00:00:00+00:00</time>
        <ele>91.0</ele>
      </trkpt>
      <trkpt lat="50.601717" lon="4.127865">
        <time>1970-01-01T00:00:00+00:00</time>
        <ele>88.0</ele>
      </trkpt>
      <trkpt lat="50.601699" lon="4.127818">
        <time>1970-01-01T00:00:00+00:00</time>
        <ele>88.0</ele>
      </trkpt>
      <trkpt lat="50.601916" lon="4.127624">
        <time>1970-01-01T00:00:00+00:00</time>
        <ele>89.0</ele>
      </trkpt>
      <trkpt lat="50.601957" lon="4.12745">
        <time>1970-01-01T00:00:00+00:00</time>
        <ele>88.0</ele>
      </trkpt>
      <trkpt lat="50.601825" lon="4.127537">
        <time>1970-01-01T00:00:00+00:00</time>
        <ele>88.0</ele>
      </trkpt>
      <trkpt lat="50.601757" lon="4.127531">
        <time>1970-01-01T00:00:00+00:00</time>
        <ele>88.0</ele>
      </trkpt>
      <trkpt lat="50.601428" lon="4.127801">
        <time>1970-01-01T00:00:00+00:00</time>
        <ele>88.0</ele>
      </trkpt>
      <trkpt lat="50.601371" lon="4.127923">
        <time>1970-01-01T00:00:00+00:00</time>
        <ele>89.0</ele>
      </trkpt>
      <trkpt lat="50.601327" lon="4.128157">
        <time>1970-01-01T00:00:00+00:00</time>
        <ele>90.0</ele>
      </trkpt>
      <trkpt lat="50.601263" lon="4.128139">
        <time>1970-01-01T00:00:00+00:00</time>
        <ele>89.0</ele>
      </trkpt>
      <trkpt lat="50.601177" lon="4.128826">
        <time>1970-01-01T00:00:00+00:00</time>
        <ele>91.0</ele>
      </trkpt>
      <trkpt lat="50.601126" lon="4.128992">
        <time>1970-01-01T00:00:00+00:00</time>
        <ele>92.0</ele>
      </trkpt>
      <trkpt lat="50.600991" lon="4.129277">
        <time>1970-01-01T00:00:00+00:00</time>
        <ele>94.0</ele>
      </trkpt>
      <trkpt lat="50.6008" lon="4.129512">
        <time>1970-01-01T00:00:00+00:00</time>
        <ele>95.0</ele>
      </trkpt>
      <trkpt lat="50.600682" lon="4.129606">
        <time>1970-01-01T00:00:00+00:00</time>
        <ele>96.0</ele>
      </trkpt>
      <trkpt lat="50.600606" lon="4.129639">
        <time>1970-01-01T00:00:00+00:00</time>
        <ele>96.0</ele>
      </trkpt>
      <trkpt lat="50.600446" lon="4.129674">
        <time>1970-01-01T00:00:00+00:00</time>
        <ele>96.0</ele>
      </trkpt>
      <trkpt lat="50.600337" lon="4.129666">
        <time>1970-01-01T00:00:00+00:00</time>
        <ele>96.0</ele>
      </trkpt>
      <trkpt lat="50.600349" lon="4.129499">
        <time>1970-01-01T00:00:00+00:00</time>
        <ele>96.0</ele>
      </trkpt>
      <trkpt lat="50.600335" lon="4.129336">
        <time>1970-01-01T00:00:00+00:00</time>
        <ele>95.0</ele>
      </trkpt>
      <trkpt lat="50.600309" lon="4.129202">
        <time>1970-01-01T00:00:00+00:00</time>
        <ele>94.0</ele>
      </trkpt>
      <trkpt lat="50.600229" lon="4.128957">
        <time>1970-01-01T00:00:00+00:00</time>
        <ele>93.0</ele>
      </trkpt>
      <trkpt lat="50.600135" lon="4.128737">
        <time>1970-01-01T00:00:00+00:00</time>
        <ele>93.0</ele>
      </trkpt>
      <trkpt lat="50.599906" lon="4.128342">
        <time>1970-01-01T00:00:00+00:00</time>
        <ele>92.0</ele>
      </trkpt>
      <trkpt lat="50.599894" lon="4.12831">
        <time>1970-01-01T00:00:00+00:00</time>
        <ele>92.0</ele>
      </trkpt>
      <trkpt lat="50.599894" lon="4.12831">
        <time>1970-01-01T00:00:00+00:00</time>
        <ele>92.0</ele>
      </trkpt>
      <trkpt lat="50.599906" lon="4.128342">
        <time>1970-01-01T00:00:00+00:00</time>
        <ele>92.0</ele>
      </trkpt>
      <trkpt lat="50.600135" lon="4.128737">
        <time>1970-01-01T00:00:00+00:00</time>
        <ele>93.0</ele>
      </trkpt>
      <trkpt lat="50.600229" lon="4.128957">
        <time>1970-01-01T00:00:00+00:00</time>
        <ele>93.0</ele>
      </trkpt>
      <trkpt lat="50.600309" lon="4.129202">
        <time>1970-01-01T00:00:00+00:00</time>
        <ele>94.0</ele>
      </trkpt>
      <trkpt lat="50.600335" lon="4.129336">
        <time>1970-01-01T00:00:00+00:00</time>
        <ele>95.0</ele>
      </trkpt>
      <trkpt lat="50.600349" lon="4.129499">
        <time>1970-01-01T00:00:00+00:00</time>
        <ele>96.0</ele>
      </trkpt>
      <trkpt lat="50.600337" lon="4.129666">
        <time>1970-01-01T00:00:00+00:00</time>
        <ele>96.0</ele>
      </trkpt>
      <trkpt lat="50.600446" lon="4.129674">
        <time>1970-01-01T00:00:00+00:00</time>
        <ele>96.0</ele>
      </trkpt>
      <trkpt lat="50.600606" lon="4.129639">
        <time>1970-01-01T00:00:00+00:00</time>
        <ele>96.0</ele>
      </trkpt>
      <trkpt lat="50.600682" lon="4.129606">
        <time>1970-01-01T00:00:00+00:00</time>
        <ele>96.0</ele>
      </trkpt>
      <trkpt lat="50.6008" lon="4.129512">
        <time>1970-01-01T00:00:00+00:00</time>
        <ele>95.0</ele>
      </trkpt>
      <trkpt lat="50.600991" lon="4.129277">
        <time>1970-01-01T00:00:00+00:00</time>
        <ele>94.0</ele>
      </trkpt>
      <trkpt lat="50.601126" lon="4.128992">
        <time>1970-01-01T00:00:00+00:00</time>
        <ele>92.0</ele>
      </trkpt>
      <trkpt lat="50.601177" lon="4.128826">
        <time>1970-01-01T00:00:00+00:00</time>
        <ele>91.0</ele>
      </trkpt>
      <trkpt lat="50.601263" lon="4.128139">
        <time>1970-01-01T00:00:00+00:00</time>
        <ele>89.0</ele>
      </trkpt>
      <trkpt lat="50.601327" lon="4.128157">
        <time>1970-01-01T00:00:00+00:00</time>
        <ele>90.0</ele>
      </trkpt>
      <trkpt lat="50.601371" lon="4.127923">
        <time>1970-01-01T00:00:00+00:00</time>
        <ele>89.0</ele>
      </trkpt>
      <trkpt lat="50.601428" lon="4.127801">
        <time>1970-01-01T00:00:00+00:00</time>
        <ele>88.0</ele>
      </trkpt>
      <trkpt lat="50.601757" lon="4.127531">
        <time>1970-01-01T00:00:00+00:00</time>
        <ele>88.0</ele>
      </trkpt>
      <trkpt lat="50.601825" lon="4.127537">
        <time>1970-01-01T00:00:00+00:00</time>
        <ele>88.0</ele>
      </trkpt>
      <trkpt lat="50.601957" lon="4.12745">
        <time>1970-01-01T00:00:00+00:00</time>
        <ele>88.0</ele>
      </trkpt>
      <trkpt lat="50.601916" lon="4.127624">
        <time>1970-01-01T00:00:00+00:00</time>
        <ele>89.0</ele>
      </trkpt>
      <trkpt lat="50.601699" lon="4.127818">
        <time>1970-01-01T00:00:00+00:00</time>
        <ele>88.0</ele>
      </trkpt>
      <trkpt lat="50.601717" lon="4.127865">
        <time>1970-01-01T00:00:00+00:00</time>
        <ele>88.0</ele>
      </trkpt>
      <trkpt lat="50.601935" lon="4.128419">
        <time>1970-01-01T00:00:00+00:00</time>
        <ele>91.0</ele>
      </trkpt>
      <trkpt lat="50.601801" lon="4.12856">
        <time>1970-01-01T00:00:00+00:00</time>
        <ele>91.0</ele>
      </trkpt>
    </trkseg>
  </trk>
</gpx>
